User: anonymous   Login
Location: Corralito
(10.2667°N, 66.9500°W)
Time: 14:20:31
(UTC+00:00)
Language:

CZ-4B DEB - Orbit

View from above orbital plane
View from above orbital plane
View from above satellite
View from above satellite

Ground track
Ground track

The orbit data is extracted from the following two-line orbital elements,

1 27433U 02024D   23271.66831053  .00000617  00000-0  35422-3 0  9997
2 27433  99.0457 299.3516 0015426  72.0663 288.2189 14.13133944101061
Epoch (UTC): 28 September 2023 16:02:22
Eccentricity: 0.0015426
inclination: 99.0457°
perigee height: 837 km
apogee height: 860 km
right ascension of ascending node: 299.3516°
argument of perigee: 72.0663°
revolutions per day: 14.13133944
mean anomaly at epoch: 288.2189°
orbit number at epoch: 10106

The dashed part of the orbit path shows where the satellite is in the earth's shadow,  

DLR